CAPE
0 0 0 0 0 0 0 0 0 0 0 0 0 0 0 9 63 31 0 0 299 0 0 0 0 0 0 0 0 0 200 758 976 1071 1086 994 728 427 145 30 0 0 0 0 0 0 0 0 0
0 0 0 0 0 0 0 0 0 0 0 0 0 0 9 35 58 12 0 0 467 18 0 0 0 0 0 0 0 0 63 477 925 1066 1016 866 537 259 55 0 0 0 0 0 0 0 0 0 0
0 0 0 0 0 0 0 0 0 0 36 0 16 22 58 106 38 24 0 0 686 130 0 0 0 0 0 0 0 0 0 133 599 822 887 705 351 153 28 0 0 0 0 0 0 0 0 0 0
0 0 0 0 0 0 0 0 0 0 17 0 20 17 60 88 58 53 0 0 347 298 52 61 0 0 0 0 0 0 0 0 151 393 549 429 146 54 0 0 0 0 0 0 0 0 0 9 29
0 0 0 0 0 0 0 0 0 1 12 0 1 15 30 93 81 0 0 0 188 395 325 234 0 0 0 0 0 0 0 0 2 63 121 107 22 0 0 0 0 0 0 2 8 0 18 57 103
0 0 0 0 0 0 0 0 0 0 0 20 15 29 34 48 59 0 0 0 72 221 540 479 94 0 0 0 0 0 0 0 0 0 0 0 0 0 0 0 0 0 0 16 22 7 45 73 138
0 0 0 0 0 0 0 0 0 0 0 0 34 30 79 48 3 9 0 3 30 216 843 642 276 0 0 0 0 0 0 0 0 0 0 0 0 0 0 0 0 0 0 18 26 30 87 141 227
0 0 0 0 0 0 0 0 0 0 0 0 1 12 17 160 29 0 0 0 27 194 879 981 640 252 0 0 0 0 0 0 0 0 0 0 0 0 0 0 0 0 0 19 72 104 184 288 406
0 0 0 0 0 0 0 0 0 0 0 0 0 0 5 74 110 0 0 0 3 87 856 1601 1499 711 115 11 34 17 0 0 0 0 0 0 0 0 0 0 0 0 0 42 119 224 399 533 598
0 0 0 0 0 0 0 0 0 0 0 0 0 0 19 57 56 39 0 19 0 61 140 357 1211 1028 258 85 126 119 0 0 0 0 0 0 0 0 0 1 0 0 0 52 127 285 576 738 671
0 0 0 0 0 0 0 0 0 0 0 0 0 0 22 16 129 175 76 76 59 45 76 313 769 1110 732 362 321 367 197 109 49 39 20 111 3 0 7 0 10 0 51 63 165 358 652 632 637
0 0 0 0 0 0 0 0 0 0 0 0 0 0 44 0 62 137 190 127 85 64 145 679 938 1275 1184 988 530 814 850 651 366 219 62 32 103 25 0 0 22 0 29 52 63 187 486 531 732
0 0 0 0 0 0 0 0 0 0 0 0 0 0 0 79 8 28 125 128 24 0 30 25 1322 1634 1521 1164 1525 745 807 1125 824 661 482 194 167 112 68 52 35 55 35 177 55 311 374 640 792
0 0 0 0 0 0 0 0 0 0 0 0 0 0 0 23 7 0 19 20 20 22 21 11 1081 1560 1758 1276 1453 1948 1164 1143 1235 1203 1087 696 345 420 182 129 264 146 144 200 231 249 591 860 1035
0 0 0 0 0 0 0 0 0 0 0 0 0 0 0 0 21 4 0 0 33 4 0 10 86 1187 1176 1061 1498 1839 2193 1894 1416 1435 1548 1295 900 448 595 411 121 422 439 262 418 369 511 929 1265
0 0 0 0 0 0 0 0 0 0 0 0 0 0 0 0 0 0 0 44 45 8 7 14 9 298 770 1322 1790 2070 1669 1422 1239 1376 1204 2088 1457 1081 905 700 704 461 542 449 523 810 747 712 841
0 0 0 0 0 0 0 0 0 0 0 0 0 0 0 0 7 7 5 25 29 0 0 24 168 32 755 1433 1772 1842 1463 750 984 1171 1168 1656 2083 1587 1404 1254 904 914 771 585 580 536 503 567 903
0 0 0 0 0 0 0 0 0 0 0 0 0 0 0 0 0 17 6 35 19 20 8 15 63 118 165 444 995 707 575 507 650 766 1055 1431 1955 2178 1555 1629 1201 1256 851 874 634 548 588 608 768
0 0 0 0 0 0 0 0 0 0 0 0 0 0 0 0 0 3 12 63 31 50 3 0 83 219 132 316 217 130 106 121 308 845 1206 1538 2007 1996 1944 1445 1715 1128 1259 877 860 722 659 600 463
0 0 0 0 0 0 0 0 0 0 0 0 0 0 0 0 0 0 0 61 37 7 0 0 11 29 79 96 110 107 160 159 228 932 1507 1742 2047 1897 1927 1731 1499 1423 1459 1024 949 858 672 558 545
0 0 0 0 0 0 0 0 0 0 0 0 0 0 0 0 0 0 1 0 0 0 0 0 0 0 0 27 208 480 168 122 493 1322 1674 1750 1906 1928 1923 1579 1461 1699 1365 1138 1141 807 620 619 649
0 0 0 0 0 0 0 0 0 0 0 0 0 0 0 0 0 0 0 0 0 0 0 0 2 0 18 341 665 554 408 231 423 1223 1912 1958 1902 1861 1858 1615 1616 1833 1356 1459 1055 984 663 790 929
0 0 0 0 0 0 0 0 0 0 0 0 0 0 0 0 0 0 0 0 0 0 0 0 0 3 24 352 354 555 560 882 1373 1835 1840 1982 1768 1544 1427 1353 1498 1471 1224 1420 1062 882 941 1128 769
0 0 0 1 4 1 0 0 0 0 0 0 0 0 0 0 0 0 0 0 0 0 0 0 0 0 10 152 787 506 175 585 1565 1538 1885 1722 1367 1192 1282 1189 1431 1361 1361 1600 1174 1183 1191 872 751
13 33 4 3 4 2 0 0 0 0 0 0 0 0 0 3 1 0 0 0 0 0 0 0 0 14 82 353 1103 551 38 1293 2093 1882 1971 1481 1218 1090 1337 1530 1355 1537 1526 1549 1162 1033 1010 863 625
43 36 4 17 7 13 0 0 1 0 0 0 0 0 0 0 0 0 0 0 0 0 0 0 0 0 31 463 515 854 666 1997 2864 1876 1600 1144 1208 1264 1556 1582 1482 1612 1301 1280 1113 996 894 825 453
22 49 41 8 0 19 1 0 0 0 0 0 0 0 1 0 0 0 0 0 0 0 0 0 0 0 20 39 816 1517 2096 2496 2566 2090 1506 1451 1789 1916 1412 1833 1371 1458 1051 1113 847 809 725 422 404
110 161 38 73 0 1 9 4 6 32 31 3 0 0 0 11 0 0 0 0 23 6 7 15 181 797 1524 1608 1982 2304 2821 2592 2558 2338 2024 2047 2155 2052 1847 1563 1189 1077 1054 845 756 357 364 300 235
93 114 89 16 0 7 0 0 56 30 0 0 0 6 55 28 2 143 332 1271 901 453 216 681 867 1620 1741 2009 2227 2465 2376 2761 2643 2287 1959 2066 1814 1604 1377 1069 916 896 703 538 479 393 324 120 86
33 62 39 79 4 14 25 0 31 0 0 0 0 90 64 15 2 868 878 1063 1435 1376 1058 1101 1934 1964 2326 2184 2402 2515 2395 2235 1834 1503 1275 1168 1051 825 771 802 658 578 367 262 221 133 367 219 234
CIN
0 0 0 0 0 0 0 0 0 0 0 0 0 0 0 -25 -59 -39 0 0 -221 0 0 0 0 0 0 0 0 0 -334 -237 -199 -168 -148 -143 -164 -198 -222 -253 0 0 0 0 0 0 0 0 0
0 0 0 0 0 0 0 0 0 0 0 0 0 0 -52 -34 -67 -55 0 0 -194 -328 0 0 0 0 0 0 0 0 -410 -287 -214 -175 -157 -155 -197 -228 -284 0 0 0 0 0 0 0 0 0 0
0 0 0 0 0 0 0 0 0 0 -5 0 -98 -79 -36 -24 -38 -105 0 0 -200 -376 0 0 0 0 0 0 0 0 0 -378 -268 -216 -184 -192 -242 -279 -352 0 0 0 0 0 0 0 0 0 0
0 0 0 0 0 0 0 0 0 0 -16 0 -69 -64 -55 -67 -29 -193 0 0 -228 -291 -515 -587 0 0 0 0 0 0 0 -2 -355 -289 -246 -255 -326 -379 0 0 0 0 0 0 0 0 0 -363 -323
0 0 0 0 0 0 0 0 0 -3 -15 0 -3 -23 -71 -58 -97 0 0 0 -198 -231 -323 -537 0 0 0 0 0 0 0 0 -146 -401 -371 -363 -394 0 0 0 0 0 0 -220 -424 0 -388 -339 -293
0 0 0 0 0 0 0 0 0 0 0 -5 -8 -24 -11 -48 -66 0 0 0 -142 -192 -265 -432 -513 0 0 0 0 0 0 0 0 0 0 0 0 0 0 0 0 0 0 -435 -405 -416 -354 -331 -283
0 0 0 0 0 0 0 0 0 0 0 0 -6 -8 -4 -6 -72 -63 0 -93 -124 -150 -233 -389 -523 0 0 0 0 0 0 0 0 0 0 0 0 0 0 0 0 0 0 -433 -395 -380 -327 -287 -253
0 0 0 0 0 0 0 0 0 0 0 0 -1 -12 -7 -10 -34 0 0 0 -81 -140 -205 -313 -440 -543 0 0 0 0 0 0 0 0 0 0 0 0 0 0 0 0 0 -437 -365 -325 -281 -230 -193
0 0 0 0 0 0 0 0 0 0 0 0 0 0 -31 -33 -8 0 0 0 -11 -83 -133 -175 -279 -466 -578 -192 -643 -667 0 0 0 0 0 0 0 0 0 0 0 0 0 -445 -363 -294 -228 -190 -179
0 0 0 0 0 0 0 0 0 0 0 0 0 0 -27 -35 -25 -38 0 -5 -4 -34 -94 -115 -169 -311 -432 -455 -489 -574 -38 0 0 0 0 0 0 0 -1 -258 0 0 0 -453 -378 -294 -209 -172 -180
0 0 0 0 0 0 0 0 0 0 0 0 0 0 -17 -43 -20 -10 -16 -3 -4 -16 -32 -86 -109 -225 -268 -275 -341 -447 -497 -564 -592 -622 -637 -587 -282 0 -556 0 -525 0 -474 -471 -383 -298 -213 -216 -195
0 0 0 0 0 0 0 0 0 0 0 0 0 -1 -21 -1 -24 -1 -4 -8 -15 -5 -22 -62 -66 -120 -146 -159 -218 -311 -327 -401 -458 -508 -590 -623 -600 -613 0 0 -475 0 -484 -489 -455 -393 -279 -256 -161
0 0 0 0 0 0 0 0 0 0 0 0 0 0 0 -7 -30 -29 -20 -16 -47 0 -86 -118 -43 -110 -139 -115 -95 -144 -204 -229 -317 -384 -480 -555 -535 -561 -509 -461 -440 -429 -486 -423 -461 -319 -315 -224 -139
0 0 0 0 0 0 0 0 0 0 0 0 0 0 0 -10 -45 0 -70 -86 -85 -69 -65 -37 -59 -133 -157 -167 -140 -116 -144 -155 -178 -216 -282 -436 -504 -429 -449 -423 -305 -301 -377 -342 -384 -345 -236 -176 -100
0 0 0 0 0 0 0 0 0 0 0 0 0 0 0 0 -8 -10 0 -6 -97 -117 0 -192 -152 -96 -154 -149 -168 -142 -118 -121 -115 -110 -101 -204 -340 -413 -336 -309 -390 -278 -210 -279 -248 -293 -237 -102 -35
0 0 0 0 0 0 0 0 0 0 0 0 0 0 0 0 0 0 0 -51 -76 -115 -149 -198 -173 -115 -113 -144 -159 -156 -169 -155 -146 -130 -117 -90 -218 -277 -264 -269 -239 -279 -237 -207 -184 -114 -131 -137 -84
0 0 0 0 0 0 0 0 0 0 0 0 0 0 0 -44 -87 -74 -36 -79 -72 0 0 -150 -166 -191 -105 -116 -145 -159 -168 -187 -176 -142 -123 -114 -143 -240 -206 -191 -215 -188 -188 -223 -192 -180 -180 -139 -93
0 0 0 0 0 0 0 0 0 0 0 0 0 0 0 0 0 -58 -80 -78 -82 -93 -136 -170 -209 -192 -174 -132 -153 -214 -232 -234 -207 -161 -107 -106 -113 -166 -219 -139 -195 -124 -186 -165 -186 -206 -162 -148 -101
0 0 0 0 0 0 0 0 0 0 0 0 0 0 0 -1 -1 -19 -27 -46 -45 -73 -119 -1 -220 -240 -241 -182 -213 -246 -277 -283 -226 -147 -115 -101 -108 -138 -162 -192 -116 -161 -130 -173 -143 -155 -164 -167 -154
0 0 0 0 0 0 0 0 0 0 0 0 0 0 0 0 0 0 -42 -37 -31 -59 0 0 -295 -306 -326 -302 -327 -326 -265 -256 -240 -134 -97 -79 -96 -136 -134 -148 -135 -132 -97 -147 -131 -135 -168 -162 -105
0 0 0 0 0 0 0 0 0 0 0 0 0 0 0 0 0 0 -15 0 0 0 0 0 0 0 0 -374 -321 -280 -310 -299 -179 -40 -60 -98 -105 -122 -114 -143 -125 -93 -103 -126 -105 -160 -154 -109 -72
0 0 0 0 0 0 0 0 0 0 0 0 0 0 0 0 0 0 0 0 0 0 0 0 -221 0 -348 -331 -257 -260 -253 -290 -205 -45 -51 -119 -118 -110 -106 -131 -96 -69 -97 -75 -118 -110 -124 -47 -11
0 0 0 0 0 0 0 0 0 0 0 0 0 0 0 0 0 0 0 0 0 0 0 0 0 -133 -291 -314 -319 -260 -227 -186 -87 -56 -86 -102 -150 -144 -153 -144 -91 -92 -93 -55 -105 -94 -51 -4 -10
-2 0 0 -5 -8 -1 0 0 0 0 0 0 0 0 0 0 0 0 0 0 0 0 0 0 0 0 -95 -263 -219 -282 -265 -181 -48 -109 -116 -173 -201 -201 -164 -155 -99 -84 -53 -11 -38 -19 -5 -10 -12
-7 -5 -20 -2 -2 -1 0 -2 0 0 0 0 0 0 0 -8 -2 0 0 0 0 0 0 0 0 -286 -289 -238 -170 -264 -321 -98 -19 -100 -141 -187 -207 -201 -143 -100 -99 -42 -10 -2 -9 -14 -6 -21 -29
-3 -8 -5 -3 -8 -8 -1 -2 -10 0 0 0 0 0 0 -1 0 0 0 0 0 0 0 0 0 0 -292 -225 -281 -214 -204 -45 -23 -129 -183 -208 -180 -151 -93 -61 -43 -12 -12 -4 -7 -21 -16 -18 -26
-12 -6 -22 -25 0 -5 -1 0 0 0 0 0 0 0 -3 0 0 0 0 0 0 0 0 0 0 0 -41 -465 -225 -116 -46 -6 -54 -67 -142 -125 -66 -45 -66 -6 -29 -5 -8 -9 -17 -14 -18 -24 -19
-9 -6 -11 -9 0 -2 -7 -9 -7 -14 -35 -12 0 0 0 -9 0 0 0 0 -170 -90 -133 -107 -243 -108 -63 -51 -29 -19 -5 -8 -16 -25 -27 -38 -11 -13 -5 -7 -14 -4 -8 -12 -17 -32 -18 -20 -21
-10 -5 -13 -51 -3 -2 0 0 -15 -74 -21 0 -2 -40 -2 -12 -4 -4 -11 -15 -16 -75 -170 -94 -54 -7 -21 -12 -7 -5 -12 -5 -7 -8 -13 -19 -18 -18 -12 -15 -17 -8 -13 -17 -13 -7 -10 -22 -27
-13 -56 -31 -9 -11 -10 -7 0 -18 0 0 0 0 -56 -30 -26 -1 -13 -25 -22 -35 -15 -29 -28 -2 -1 -1 -5 -8 -15 -22 -23 -24 -31 -52 -43 -55 -63 -44 -24 -16 -9 -10 -21 -16 -18 -5 -11 -14
Wind_Speed
23 23 23 24 23 21 30 32 33 34 22 11 26 19 21 27 17 14 10 12 15 18 20 21 22 22 21 19 20 19 19 19 19 20 20 20 20 19 19 19 18 18 19 19 19 19 20 20 20
21 22 23 23 24 28 29 32 8 23 20 14 13 19 20 20 10 8 10 14 14 18 19 21 22 21 20 19 18 18 18 18 17 17 17 17 17 17 17 16 16 16 16 17 17 18 18 18 19
22 26 23 22 29 33 31 32 15 16 14 13 14 20 20 18 7 5 7 12 13 14 17 19 20 19 18 17 17 18 17 16 16 15 15 15 15 14 14 14 14 14 14 14 15 15 16 16 17
19 21 25 30 34 32 39 35 29 5 9 15 20 15 21 13 12 5 9 10 10 10 14 17 18 18 17 17 17 16 15 15 14 13 12 12 12 12 12 12 12 12 12 12 13 13 13 13 14
25 26 31 34 33 37 39 36 30 22 11 21 25 16 19 14 7 4 5 6 9 9 12 15 16 16 17 16 15 15 15 14 13 11 10 10 10 10 9 9 10 10 10 10 10 10 11 11 12
24 25 36 38 37 38 37 35 33 27 23 16 11 17 18 10 8 3 3 4 6 7 9 11 14 15 15 14 13 14 13 11 10 9 8 8 7 7 7 7 7 7 7 7 8 8 9 9 11
31 29 35 39 39 42 38 34 36 25 29 30 24 22 22 7 7 4 5 4 5 7 6 7 10 13 12 11 11 11 10 8 8 7 6 6 5 5 4 4 4 4 4 4 5 5 7 9 10
29 32 41 41 40 40 39 37 35 29 25 30 28 25 27 20 5 5 7 7 7 6 4 3 6 9 10 8 9 8 7 6 6 5 5 4 3 3 2 1 1 1 1 2 2 3 4 7 10
33 40 41 42 40 40 37 36 33 30 32 37 34 23 20 22 11 6 8 10 8 6 5 3 4 5 7 6 6 5 4 3 3 3 4 3 1 2 2 2 2 3 2 2 1 1 3 6 7
34 40 42 39 39 38 38 38 36 34 34 31 34 26 19 13 7 9 9 10 7 7 6 5 4 5 5 4 4 3 2 2 2 3 3 4 3 3 3 5 6 6 5 4 3 3 4 5 6
35 53 34 45 42 38 42 42 37 38 39 34 28 29 13 19 14 16 13 11 9 8 8 8 5 5 3 2 1 1 2 3 3 5 5 4 4 5 6 6 6 6 7 5 5 5 6 6 6
37 37 43 55 50 48 46 42 41 39 41 41 37 33 29 19 22 19 17 15 12 11 10 8 5 5 3 2 2 3 4 3 3 4 4 4 5 7 8 8 7 7 6 7 7 6 6 6 6
44 45 45 46 49 53 51 52 49 41 41 45 43 41 36 24 22 26 27 28 20 24 18 16 16 5 2 5 7 5 5 5 4 5 6 6 7 8 8 8 7 6 6 6 7 6 6 6 5
40 47 51 50 53 46 46 52 49 54 43 41 44 44 39 23 25 30 31 29 23 16 13 12 6 6 6 7 8 8 7 7 7 8 9 9 8 9 8 7 6 6 6 5 5 6 6 6 6
41 49 48 53 47 49 46 53 52 55 50 47 43 44 46 40 24 28 27 30 27 27 26 25 19 11 10 10 10 11 11 10 10 11 12 11 10 10 9 8 8 6 6 6 5 6 5 7 6
40 42 49 46 41 49 41 58 54 53 52 49 49 45 47 44 41 35 30 28 25 27 26 24 24 20 14 14 13 13 12 13 14 16 16 14 12 11 10 9 8 8 7 7 6 5 5 6 8
34 49 47 50 43 43 36 58 56 47 47 55 50 48 47 46 42 38 37 34 29 28 30 29 24 22 18 16 15 14 15 19 20 19 19 15 13 11 10 9 8 7 7 8 7 7 7 9 9
40 42 43 48 46 46 45 52 56 49 52 48 50 53 46 48 48 40 35 35 33 28 27 27 27 25 22 19 18 19 20 21 21 21 19 15 13 11 10 9 9 7 7 7 7 7 9 8 10
42 45 50 50 48 48 44 51 58 48 43 47 47 44 48 52 43 41 36 33 35 30 28 27 26 25 25 26 25 25 25 24 23 21 18 15 13 10 8 9 8 8 7 7 7 7 7 9 10
42 47 52 51 47 47 50 56 56 47 49 46 42 42 44 44 42 44 44 34 26 23 24 27 27 28 28 29 30 28 25 24 22 17 13 12 11 9 8 8 7 6 6 6 7 7 8 10 8
43 46 49 51 47 45 52 56 56 54 50 48 48 44 39 38 44 40 34 35 32 31 31 30 31 32 31 30 30 28 27 27 24 15 12 11 9 8 6 6 6 5 5 6 7 6 7 8 6
43 37 43 47 49 52 42 60 54 53 55 49 51 52 46 40 40 43 40 37 34 33 31 30 30 32 31 30 29 26 26 25 21 16 12 9 9 6 5 4 5 5 5 5 4 5 6 6 9
45 42 46 46 50 52 52 52 57 50 58 51 47 44 51 43 45 42 43 41 39 40 40 38 34 33 32 30 28 26 25 21 16 12 10 10 9 5 4 3 3 4 4 3 2 3 2 5 7
41 44 46 48 48 59 55 54 60 56 54 54 47 44 41 39 42 46 44 43 43 37 33 32 30 28 27 27 25 23 21 16 14 11 10 9 6 4 4 3 4 3 2 2 1 3 3 7 8
32 38 45 49 49 57 49 51 53 55 51 53 53 46 42 34 34 33 37 36 35 36 36 29 26 21 19 20 19 17 17 14 13 7 7 6 5 5 3 2 2 1 1 2 3 5 6 7 8
34 36 37 46 45 46 42 48 48 46 46 48 49 44 42 33 37 36 32 33 32 30 25 25 24 20 18 18 16 16 16 13 9 7 6 5 3 2 2 2 3 1 2 4 6 8 7 8 8
34 34 32 31 35 46 46 47 40 41 47 46 44 41 28 35 34 29 31 31 30 28 24 18 18 18 18 16 14 12 11 9 7 5 2 2 3 2 4 3 2 2 3 6 7 7 7 7 6
38 36 35 30 36 43 38 39 38 31 35 38 41 38 32 30 27 29 31 31 32 31 24 16 15 14 12 11 8 8 8 7 4 3 5 5 4 4 4 4 2 5 6 6 7 6 6 5 5
35 35 10 27 17 30 36 32 16 29 31 33 33 37 24 20 26 28 26 25 24 21 17 15 16 11 9 6 6 6 6 4 3 6 3 5 5 5 4 4 5 6 6 6 4 9 7 5 6
28 33 26 34 33 34 38 43 29 30 32 30 29 19 27 20 27 25 34 32 28 24 15 16 10 8 4 4 4 5 5 5 4 4 5 5 5 5 4 4 5 6 5 6 7 7 7 5 5
Wind_Direction
273 271 274 272 272 275 266 261 232 246 279 278 259 288 272 253 305 302 99 101 98 103 107 112 114 114 109 102 100 99 98 95 91 92 91 87 82 80 80 76 73 68 65 61 58 56 54 49 44
272 271 273 276 268 265 267 231 230 223 288 282 290 277 284 276 355 107 106 108 102 106 110 115 120 118 114 111 105 103 103 97 95 95 91 85 82 80 79 79 76 70 69 67 61 56 53 51 46
272 263 272 274 263 260 265 243 300 285 298 294 288 274 274 272 22 101 89 109 103 102 111 117 121 119 116 115 112 110 109 104 101 98 95 87 83 78 78 79 78 74 76 72 65 62 55 52 48
283 270 272 265 262 262 242 256 285 280 289 286 274 281 268 299 322 70 101 109 104 104 112 122 124 122 121 121 119 116 113 111 107 105 99 93 87 84 82 81 82 79 80 76 69 62 58 54 49
277 269 263 264 264 259 253 261 281 279 289 279 266 280 274 286 343 90 122 119 112 111 114 124 128 127 127 125 125 124 121 119 117 112 106 103 94 91 89 92 85 81 83 75 70 66 59 53 45
273 271 262 261 263 257 257 266 277 275 282 297 284 276 281 280 277 238 162 156 124 119 113 118 129 133 130 128 127 131 130 126 122 120 119 114 106 98 97 98 88 87 87 76 72 64 52 44 34
267 266 264 263 265 264 260 274 274 278 270 270 276 279 278 284 266 209 181 170 150 128 114 113 125 140 136 134 138 136 139 134 135 132 128 124 118 116 107 97 92 86 90 77 70 64 40 31 23
266 269 263 262 263 266 263 273 273 280 271 271 272 281 275 286 245 193 194 180 161 142 140 123 121 135 144 141 145 145 144 142 143 145 148 144 143 146 135 108 113 132 99 90 75 52 30 19 10
266 265 265 263 266 265 269 270 275 281 281 265 269 279 293 303 229 196 200 177 175 167 157 150 141 131 140 145 150 153 158 157 166 182 184 183 185 201 229 249 251 227 217 209 213 350 3 4 2
261 262 263 266 269 271 268 272 273 273 272 272 263 273 278 291 262 257 225 180 206 190 192 191 177 156 144 140 147 162 209 245 234 228 221 224 242 255 266 263 245 239 232 232 251 289 324 340 348
261 258 266 264 267 273 271 269 276 269 268 268 270 270 273 272 265 252 233 244 212 220 211 199 199 182 160 146 169 319 326 308 255 247 240 251 269 266 276 285 264 260 239 252 263 283 303 315 328
264 265 267 258 263 268 270 272 271 265 268 267 271 265 270 273 265 254 247 237 245 230 222 200 243 167 193 288 273 299 310 308 279 259 247 263 284 282 283 284 280 251 249 251 269 269 291 296 300
266 267 269 268 265 265 267 264 268 269 267 262 267 269 269 258 258 268 262 258 277 294 284 269 183 180 293 269 300 286 289 299 285 280 271 276 282 292 293 286 268 256 237 264 260 260 280 287 293
275 270 267 268 265 268 267 267 268 261 265 267 264 265 266 261 270 267 266 268 275 271 275 298 291 288 298 295 272 299 287 296 286 292 290 269 277 296 288 279 277 252 247 258 247 244 272 274 297
277 272 272 265 270 268 271 268 263 260 263 265 266 264 261 268 261 256 262 266 269 272 278 285 298 289 289 291 289 284 300 300 292 301 291 275 276 279 286 279 243 249 273 242 251 238 262 305 300
279 277 271 271 272 269 273 267 265 263 262 262 262 264 263 264 267 270 274 271 271 269 272 275 281 295 282 288 287 291 289 292 296 300 299 290 272 280 276 277 270 249 255 258 249 270 282 297 309
279 273 274 273 273 275 268 266 264 267 267 262 262 263 263 264 265 267 267 270 272 271 270 270 272 279 292 287 288 290 293 298 301 301 298 292 278 269 275 273 270 261 257 242 260 272 287 305 316
281 278 278 274 274 274 274 269 266 267 266 267 264 261 263 263 264 267 262 265 265 265 265 266 269 275 284 294 290 295 301 301 300 300 298 289 281 274 260 278 269 267 253 258 259 268 296 301 319
286 283 279 278 279 280 279 273 267 268 265 263 265 267 264 263 267 269 264 265 260 259 260 263 266 272 279 287 289 292 297 300 301 299 293 286 284 272 271 267 277 248 261 257 263 284 289 309 316
285 282 279 282 283 282 277 272 270 274 268 267 264 263 266 268 266 264 263 267 260 259 261 266 266 270 275 283 286 292 297 303 301 302 297 289 284 273 271 274 264 244 275 259 273 282 307 309 312
286 284 282 281 285 282 277 274 270 268 272 270 269 272 264 263 264 267 261 262 265 266 267 270 269 270 274 277 285 288 291 295 307 301 301 298 285 281 273 262 240 257 260 273 283 291 297 312 313
288 291 286 284 280 275 279 272 269 269 268 270 269 267 271 267 267 265 267 267 267 268 271 271 271 272 272 274 278 280 284 291 291 294 300 296 295 281 267 253 228 301 275 290 280 302 298 296 324
293 295 290 285 281 279 273 272 270 271 267 268 269 267 266 269 267 266 265 268 271 272 272 273 272 271 270 269 271 275 280 287 294 294 295 297 297 290 288 255 258 303 307 287 302 299 266 317 327
299 292 286 286 280 272 272 272 269 268 269 269 271 269 268 267 266 265 266 268 270 271 268 270 269 265 264 264 265 270 271 270 281 283 288 292 291 288 283 261 262 289 283 315 358 357 341 346 340
303 295 288 279 274 273 276 273 273 271 272 269 267 271 271 275 269 265 267 266 268 271 272 272 271 263 259 261 262 251 256 264 270 265 276 281 282 278 236 217 204 223 273 23 8 360 356 343 339
304 298 288 283 276 279 284 276 276 279 279 270 267 269 267 274 278 264 268 272 268 266 266 268 269 263 268 265 256 258 256 256 260 253 279 278 255 237 188 172 152 80 57 29 359 350 347 347 348
299 299 291 293 285 282 283 284 283 283 274 272 264 266 266 266 271 272 269 271 270 268 272 264 264 264 270 268 260 249 237 232 229 255 238 186 174 140 153 137 112 54 19 359 353 353 353 353 2
256 282 286 295 292 285 286 285 284 292 298 269 261 268 268 266 263 272 269 270 266 265 271 263 258 262 264 265 249 225 219 227 220 205 158 141 123 106 125 111 68 5 6 3 5 3 5 17 19
280 256 291 293 319 298 290 289 325 294 299 290 275 252 267 269 272 271 265 270 268 263 265 259 261 255 259 247 218 203 196 210 156 140 123 124 112 97 85 43 15 3 3 10 27 6 17 25 14
279 270 266 277 295 277 284 249 296 302 289 285 276 259 259 281 279 275 264 261 258 257 253 254 237 237 219 216 188 161 152 136 126 102 91 83 74 66 60 46 49 30 29 20 21 13 12 22 21